Newport, VT

9:34 PM EDT on April 19, 2018 (GMT -0400)
Newport State

Weather History for KEFK - January, 2013

Change the Weather History Date:

Monday, January 21, 2013

  Actual Average Record
Temperature  
Mean Temperature 6 °F -  
Max Temperature 11 °F 25 °F 47 °F (1951)
Min Temperature 0 °F 1 °F -20 °F (1934)
Degree Days  
Heating Degree Days 60    
Moisture  
Dew Point -5 °F    
Average Humidity 60    
Maximum Humidity 72    
Minimum Humidity 46    
Precipitation  
Precipitation 0.00 in - - ()
Sea Level Pressure  
Sea Level Pressure 29.92 in    
Wind  
Wind Speed 6 mph (NNW)    
Max Wind Speed 9 mph    
Max Gust Speed 20 mph    
Visibility 10 miles    
Events      
Averages and records for this station are not official NWS values.
T = Trace of Precipitation, MM = Missing Value Source: NWS Daily Summary

Daily Weather History Graph

Daily Weather History Graph

Search for Another Location

Airport or City:

Astronomy

Jan. 21, 2013 Rise Set
Actual Time 7:19 AM EST 4:42 PM EST
Civil Twilight 6:46 AM EST 5:14 PM EST
Nautical Twilight 6:11 AM EST 5:50 PM EST
Astronomical Twilight 5:36 AM EST 6:24 PM EST
Moon 12:19 PM EST (1/21) 2:45 AM EST (1/21)
Length of Visible Light 10h 27m
Length of Day
9h 23m
Waxing Gibbous, 75% of the Moon is Illuminated
Jan 21
Waxing Gibbous
Jan 26
Full
Feb 3
Last Quarter
Feb 10
New
Feb 17
First Quarter

Hourly Weather History & Observations

Time (EST) Temp. Windchill Dew Point Humidity Pressure Visibility Wind Dir Wind Speed Gust Speed Precip Events Conditions
12:15 AM 7.7 °F -5.8 °F -3.1 °F 61% 29.89 in 10.0 mi West 9.2 mph - N/A   Overcast
12:35 AM 7.3 °F -6.2 °F -3.5 °F 61% 29.89 in 10.0 mi West 9.2 mph 16.1 mph N/A   Overcast
12:55 AM 6.8 °F -6.9 °F -3.5 °F 63% 29.89 in 10.0 mi West 9.2 mph 19.6 mph N/A   Overcast
1:15 AM 6.8 °F -6.9 °F -4.0 °F 61% 29.90 in 10.0 mi West 9.2 mph 17.3 mph N/A   Overcast
1:35 AM 6.3 °F -5.4 °F -4.5 °F 61% 29.91 in 10.0 mi West 6.9 mph - N/A   Overcast
1:55 AM 5.9 °F -5.8 °F -5.6 °F 59% 29.92 in 10.0 mi WNW 6.9 mph 18.4 mph N/A   Overcast
2:15 AM 5.5 °F -6.3 °F -6.0 °F 59% 29.93 in 10.0 mi West 6.9 mph - N/A   Overcast
2:35 AM 5.2 °F -3.8 °F -6.3 °F 59% 29.93 in 10.0 mi West 4.6 mph - N/A   Overcast
2:55 AM 4.8 °F -5.8 °F -6.0 °F 61% 29.94 in 10.0 mi East 5.8 mph - N/A   Overcast
3:15 AM 4.3 °F -6.5 °F -6.2 °F 62% 29.94 in 10.0 mi ESE 5.8 mph - N/A   Overcast
3:35 AM 3.9 °F -3.4 °F -5.8 °F 64% 29.94 in 10.0 mi East 3.5 mph - N/A   Overcast
3:55 AM 3.9 °F -3.4 °F -6.0 °F 64% 29.94 in 10.0 mi ENE 3.5 mph - N/A   Overcast
4:15 AM 4.1 °F -3.2 °F -5.8 °F 64% 29.94 in 10.0 mi NE 3.5 mph - N/A   Overcast
4:35 AM 3.6 °F -5.7 °F -6.3 °F 64% 29.95 in 10.0 mi West 4.6 mph - N/A   Overcast
4:55 AM 3.2 °F - -7.2 °F 62% 29.95 in 10.0 mi Calm Calm - N/A   Overcast
5:15 AM 3.2 °F -7.8 °F -7.6 °F 61% 29.95 in 10.0 mi SW 5.8 mph - N/A   Overcast
5:35 AM 2.8 °F -6.6 °F -7.4 °F 62% 29.95 in 10.0 mi West 4.6 mph - N/A   Scattered Clouds
5:55 AM 1.8 °F -9.5 °F -7.8 °F 64% 29.95 in 10.0 mi West 5.8 mph - N/A   Clear
6:15 AM 0.7 °F -13.3 °F -8.5 °F 65% 29.96 in 10.0 mi West 8.1 mph - N/A   Clear
6:55 AM 1.0 °F -11.7 °F -8.0 °F 66% 29.96 in 10.0 mi WSW 6.9 mph - N/A   Clear
7:15 AM 0.3 °F - -9.4 °F 64% 29.97 in 10.0 mi Calm Calm - N/A   Clear
7:35 AM 0.1 °F - -9.2 °F 65% 29.97 in 10.0 mi Calm Calm - N/A   Clear
7:55 AM 0.9 °F - -8.7 °F 64% 29.98 in 10.0 mi Calm Calm - N/A   Clear
8:15 AM -0.2 °F -8.1 °F -9.0 °F 66% 29.98 in 10.0 mi SE 3.5 mph - N/A   Clear
8:35 AM 2.8 °F -6.6 °F -7.1 °F 63% 29.99 in 10.0 mi South 4.6 mph - N/A   Clear
8:55 AM 3.7 °F -9.6 °F -7.2 °F 60% 29.99 in 10.0 mi SSW 8.1 mph - N/A   Clear
9:15 AM 4.3 °F -7.8 °F -6.7 °F 60% 29.99 in 10.0 mi South 6.9 mph - N/A   Clear
9:35 AM 5.0 °F -8.1 °F -6.7 °F 59% 29.99 in 10.0 mi South 8.1 mph - N/A   Clear
9:55 AM 5.7 °F -4.8 °F -6.7 °F 57% 29.99 in 10.0 mi SSW 5.8 mph - N/A   Clear
10:15 AM 6.3 °F -4.1 °F -6.5 °F 56% 29.99 in 10.0 mi SSE 5.8 mph - N/A   Clear
10:35 AM 7.5 °F 0.8 °F -7.1 °F 51% 29.99 in 10.0 mi South 3.5 mph - N/A   Clear
10:55 AM 8.4 °F - -7.1 °F 49% 29.98 in 10.0 mi Calm Calm - N/A   Clear
11:15 AM 9.0 °F 2.4 °F -6.7 °F 49% 29.97 in 10.0 mi East 3.5 mph - N/A   Clear
11:35 AM 10.0 °F 3.6 °F -6.7 °F 47% 29.96 in 10.0 mi East 3.5 mph - N/A   Clear
11:55 AM 10.9 °F - -6.0 °F 47% 29.95 in 10.0 mi Calm Calm - N/A   Clear
12:15 PM 11.1 °F - -6.0 °F 46% 29.94 in 10.0 mi Calm Calm - N/A   Clear
12:35 PM 11.3 °F - -5.6 °F 47% 29.93 in 10.0 mi Calm Calm - N/A   Clear
12:55 PM 11.1 °F 3.1 °F -5.4 °F 47% 29.91 in 10.0 mi NNW 4.6 mph - N/A   Clear
1:15 PM 11.8 °F 2.5 °F -3.6 °F 50% 29.90 in 10.0 mi North 5.8 mph - N/A   Clear
1:35 PM 10.6 °F -1.3 °F -2.7 °F 55% 29.90 in 10.0 mi North 8.1 mph - N/A   Clear
1:55 PM 10.4 °F -0.4 °F -2.6 °F 56% 29.89 in 10.0 mi North 6.9 mph - N/A   Clear
2:15 PM 10.0 °F 0.4 °F -3.8 °F 54% 29.90 in 10.0 mi North 5.8 mph - N/A   Clear
2:35 PM 10.0 °F 0.4 °F -3.3 °F 55% 29.90 in 10.0 mi North 5.8 mph - N/A   Clear
2:55 PM 10.0 °F 0.4 °F -3.6 °F 54% 29.90 in 10.0 mi North 5.8 mph - N/A   Clear
3:15 PM 10.2 °F 3.8 °F -2.9 °F 55% 29.90 in 10.0 mi North 3.5 mph - N/A   Mostly Cloudy
3:35 PM 10.4 °F 2.2 °F -2.6 °F 56% 29.90 in 10.0 mi NNE 4.6 mph - N/A   Overcast
3:55 PM 10.0 °F 1.8 °F -2.9 °F 56% 29.89 in 10.0 mi North 4.6 mph - N/A   Scattered Clouds
4:15 PM 9.5 °F 3.0 °F -3.6 °F 55% 29.89 in 10.0 mi NNE 3.5 mph - N/A   Scattered Clouds
4:35 PM 9.9 °F - -4.2 °F 53% 29.89 in 10.0 mi Calm Calm - N/A   Scattered Clouds
4:55 PM 9.5 °F 1.2 °F -4.2 °F 54% 29.89 in 10.0 mi NNW 4.6 mph - N/A   Mostly Cloudy
5:15 PM 9.0 °F 0.6 °F -3.1 °F 58% 29.89 in 10.0 mi NNW 4.6 mph - N/A   Overcast
5:55 PM 9.9 °F 3.4 °F -2.0 °F 59% 29.89 in 10.0 mi North 3.5 mph - N/A   Overcast
6:15 PM 10.0 °F - -1.1 °F 61% 29.90 in 10.0 mi Calm Calm - N/A   Overcast
6:35 PM 9.7 °F 3.2 °F -1.3 °F 61% 29.90 in 10.0 mi NNW 3.5 mph - N/A   Overcast
6:55 PM 9.5 °F 1.2 °F -1.5 °F 61% 29.90 in 10.0 mi NNW 4.6 mph - N/A   Overcast
7:15 PM 9.3 °F -0.5 °F -1.3 °F 62% 29.90 in 10.0 mi North 5.8 mph - N/A   Overcast
7:35 PM 8.6 °F -3.7 °F -1.7 °F 63% 29.90 in 10.0 mi North 8.1 mph - N/A   Overcast
7:55 PM 8.2 °F -1.8 °F -2.2 °F 63% 29.90 in 10.0 mi North 5.8 mph - N/A   Overcast
8:15 PM 7.7 °F -2.4 °F -2.4 °F 63% 29.89 in 10.0 mi North 5.8 mph - N/A   Overcast
8:35 PM 7.7 °F -2.4 °F -2.4 °F 63% 29.88 in 10.0 mi North 5.8 mph - N/A   Overcast
8:55 PM 7.5 °F -2.6 °F -2.2 °F 65% 29.88 in 10.0 mi North 5.8 mph - N/A   Overcast
9:15 PM 6.8 °F -3.5 °F -2.2 °F 67% 29.87 in 10.0 mi North 5.8 mph - N/A   Overcast
9:35 PM 5.9 °F -1.1 °F -3.1 °F 67% 29.86 in 10.0 mi NNW 3.5 mph - N/A   Overcast
9:55 PM 5.0 °F - -2.9 °F 70% 29.85 in 10.0 mi Calm Calm - N/A   Overcast
10:15 PM 4.1 °F -3.2 °F -3.8 °F 70% 29.84 in 7.0 mi NNW 3.5 mph - N/A   Overcast
10:35 PM 3.7 °F -5.5 °F -3.8 °F 71% 29.83 in 10.0 mi North 4.6 mph - N/A   Overcast
11:15 PM 3.2 °F -9.1 °F -4.0 °F 72% 29.81 in 10.0 mi NNW 6.9 mph - N/A   Overcast
11:35 PM 4.1 °F -10.2 °F -3.3 °F 71% 29.81 in 10.0 mi NNW 9.2 mph - N/A   Overcast
11:55 PM 4.1 °F -9.2 °F -3.1 °F 72% 29.79 in 7.0 mi NNW 8.1 mph - N/A   Overcast